Location: Bratislava
(48.1500°N, 17.1170°E)
Time: 13:30:17
(UTC+01:00)

Tiangong 2 - Pass Details

Date: 26 January 2019
Orbit: 381 x 390 km, 42.8° (Epoch: 20 February)

Event Time Altitude Azimuth Distance (km) Brightness Sun altitude
Exits shadow 04:52:23 14° 141° (SE) 1,190 4.0 -25.7°
Drops below altitude 10° 04:53:03 10° 133° (SE) 1,407 4.5 -25.6°
Sets 04:55:19 0° 120° (ESE) 2,262 5.9 -25.2°
